Location: Unspecified
(33.5090°N, 0.0000°E)
Time: 08:28:12
(UTC+00:00)

Spot 4 Rocket - Visible Passes

Search period start: 04 April 2026 00:00
Search period end: 14 April 2026 00:00
Orbit: 768 x 773 km, 98.8° (Epoch: 29 March)

Date Brightness Start Highest point End Pass type
(mag) Time Alt. Az. Time Alt. Az. Time Alt. Az.
4 Apr 4.9 19:17:26 10° S 19:22:22 53° W 19:27:21 10° NNW visible
5 Apr 4.0 18:42:14 10° SSE 18:47:15 66° ENE 18:52:19 10° N visible
5 Apr 7.0 20:25:22 10° WSW 20:26:40 11° W 20:28:00 10° WNW visible
6 Apr 6.1 19:47:01 10° SSW 19:51:15 27° W 19:55:31 10° NW visible
7 Apr 4.5 19:10:59 10° S 19:16:00 63° WSW 19:21:04 10° NNW visible
8 Apr 6.9 20:17:52 10° WSW 20:20:15 13° W 20:22:38 10° WNW visible
9 Apr 5.8 19:40:22 10° SSW 19:44:51 31° W 19:49:22 10° NW visible
10 Apr 4.3 19:04:33 10° S 19:09:37 74° WSW 19:14:44 10° NNW visible
11 Apr 6.7 20:10:47 10° SW 20:13:48 16° W 20:16:51 10° WNW visible
12 Apr 5.5 19:33:47 10° SSW 19:38:27 37° W 19:43:09 10° NNW visible
13 Apr 4.1 18:58:09 10° SSE 19:03:15 87° WSW 19:08:22 10° NNW visible
